Location: Olsztyn
(53.7767°N, 20.4765°E)
Time: 08:58:37
(UTC+01:00)

Transit 4A - Pass Details

Date: 04 October 2022
Orbit: 871 x 972 km, 66.8° (Epoch: 06 December)

Event Time Altitude Azimuth Distance (km) Brightness Sun altitude
Exits shadow 23:06:51 10° 42° (NE) 2,551 10.4 -38.2°
Drops below altitude 10° 23:06:59 10° 42° (NE) 2,598 10.4 -38.2°
Sets 23:09:24 0° 42° (NE) 3,511 11.2 -38.4°
